Flag for Saint Vincent and Grenadines Weather past 2 weeks in Kingstown, Saint Vincent and Grenadines

Now
79 °F

Passing clouds.


Feels Like: 81 °F
Forecast: 78 / 84 °F
Wind: 13 mph from East

Location: Arnos Vale

Current Time: Mar 28, 2015 at 8:14:31 PM

Latest Report: Mar 28, 2015 at 7:00 PM


Visibility: N/A

Pressure: 30.04 "Hg

Humidity: 70%

Dew point: 68 °F

Location of KingstownLocation

Historic Weather in Kingstown — Graph

°F

Kingstown temperature yesterday

Maximum temperature yesterday: 84 °F (at 11:00 AM)
Minimum temperature yesterday: 77 °F (at 7:00 AM)
Average temperature yesterday: 81 °F

Past Weeks' High & Low Weather Summary

 TemperatureHumidityPressure
High86 °F (Mar 15, 1:00 PM)94% (Mar 21, 6:00 AM)30.12 "Hg (Mar 21, 6:00 AM)
Low73 °F (Mar 21, 6:00 AM)55% (Mar 15, 1:00 PM)29.92 "Hg (Mar 15, 3:00 PM)
Average81 °F72%30.00 "Hg
* Reported Mar 13 7:00 PM — Mar 28 7:00 PM, Kingstown, Weather by CustomWeather, © 2015

Note: Actual official high and low records may vary slightly from our data, if they occured in-between our weather recording intervals... More about our weather records

Advertising

Kingstown weather history for previous 24 hours

 ConditionsComfort  
Time TempWeatherWind HumidityBarometerVisibility
7:00 PM
Sat, Mar 28
79 °FPassing clouds.13 mph70%30.04 "HgN/A
6:00 PM81 °FScattered clouds.16 mph79%30.04 "HgN/A
5:00 PM82 °FScattered clouds.15 mph74%30.01 "HgN/A
4:00 PM81 °FPartly sunny.17 mph79%30.04 "HgN/A
3:00 PM81 °FSprinkles. Scattered clouds.20 mph79%30.04 "HgN/A
2:00 PM84 °FPartly sunny.21 mph66%30.04 "HgN/A
1:00 PM84 °FScattered clouds.20 mph62%30.07 "HgN/A
12:00 PM84 °FScattered clouds.17 mph62%30.09 "HgN/A
11:00 AM82 °FScattered clouds.18 mph66%30.12 "HgN/A
10:00 AM77 °FSprinkles. Broken clouds.16 mph79%30.12 "HgN/A
9:00 AM79 °FScattered clouds.14 mph79%30.09 "HgN/A
8:00 AM75 °FPartly sunny.12 mph89%30.09 "HgN/A
7:00 AM75 °FSprinkles. Partly sunny.13 mph89%30.07 "HgN/A
6:00 AM75 °FSprinkles. Passing clouds.15 mph89%30.04 "HgN/A
5:30 AM79 °FPassing clouds.13 mph74%30.04 "HgN/A
10:00 PM
Fri, Mar 27
79 °FPassing clouds.15 mph74%30.07 "HgN/A
9:00 PM79 °FPassing clouds.12 mph74%30.04 "HgN/A
8:00 PM81 °FPassing clouds.No wind70%30.04 "HgN/A
Weather by CustomWeather, © 2015

See weather overviewHow to use our weather pages